TimePDT,TemperatureF,Dew PointF,Humidity,Sea Level PressureIn,VisibilityMPH,Wind Direction,Wind SpeedMPH,Gust SpeedMPH,PrecipitationIn,Events,Conditions,WindDirDegrees,DateUTC
12:53 AM,57.9,55.0,90,29.77,10.0,East,5.8,-,0.00,Rain,Light Rain,100,2012-10-31 07:53:00
1:53 AM,57.0,55.0,93,29.75,10.0,ESE,4.6,-,0.00,,Overcast,110,2012-10-31 08:53:00
2:53 AM,57.0,55.0,93,29.73,10.0,SSE,3.5,-,N/A,,Scattered Clouds,150,2012-10-31 09:53:00
3:53 AM,57.0,55.0,93,29.71,10.0,East,3.5,-,N/A,,Mostly Cloudy,100,2012-10-31 10:53:00
4:53 AM,57.0,55.0,93,29.69,10.0,Calm,Calm,-,0.00,,Overcast,0,2012-10-31 11:53:00
5:53 AM,57.0,54.0,89,29.68,10.0,Calm,Calm,-,0.00,Rain,Light Rain,0,2012-10-31 12:53:00
6:53 AM,55.9,54.0,93,29.68,10.0,Calm,Calm,-,0.00,Rain,Light Rain,0,2012-10-31 13:53:00
7:53 AM,57.0,54.0,89,29.68,10.0,Calm,Calm,-,0.00,Rain,Light Rain,0,2012-10-31 14:53:00
8:53 AM,57.0,54.0,89,29.68,10.0,East,5.8,-,0.01,Rain,Light Rain,90,2012-10-31 15:53:00
9:53 AM,57.0,55.0,93,29.70,5.0,SE,5.8,-,0.01,Rain,Light Rain,130,2012-10-31 16:53:00
10:53 AM,57.9,55.0,90,29.70,5.0,SE,5.8,-,0.02,Rain,Light Rain,130,2012-10-31 17:53:00
11:53 AM,57.9,55.0,90,29.70,7.0,ESE,11.5,-,0.02,Rain,Light Rain,110,2012-10-31 18:53:00
12:53 PM,59.0,54.0,83,29.71,10.0,SSE,8.1,-,0.00,Rain,Light Rain,150,2012-10-31 19:53:00
1:53 PM,57.9,54.0,87,29.73,10.0,Variable,6.9,16.1,0.00,Rain,Light Rain,0,2012-10-31 20:53:00
2:53 PM,59.0,54.0,83,29.73,10.0,SE,8.1,-,0.00,Rain,Light Rain,140,2012-10-31 21:53:00
3:53 PM,57.9,51.1,78,29.75,10.0,SSE,9.2,17.3,0.00,Rain,Light Rain,160,2012-10-31 22:53:00
4:53 PM,57.0,51.1,81,29.74,10.0,SE,5.8,-,0.00,,Overcast,130,2012-10-31 23:53:00
5:53 PM,57.0,50.0,77,29.73,10.0,East,5.8,-,0.00,,Overcast,100,2012-11-01 00:53:00
6:53 PM,57.0,50.0,77,29.73,10.0,ESE,5.8,-,N/A,,Overcast,110,2012-11-01 01:53:00
7:53 PM,55.9,52.0,87,29.73,10.0,East,5.8,-,N/A,,Overcast,100,2012-11-01 02:53:00
9:53 PM,55.0,51.1,86,29.72,10.0,ESE,4.6,-,0.00,,Overcast,110,2012-11-01 04:53:00
10:53 PM,55.0,51.1,86,29.73,10.0,ESE,9.2,-,0.02,Rain,Light Rain,110,2012-11-01 05:53:00
11:53 PM,55.0,50.0,83,29.72,10.0,ESE,6.9,-,0.02,,Overcast,110,2012-11-01 06:53:00